Terminal Aerodrome Forecast
Issued by NWS Austin/San Antonio, TX

Home | Current Version | Previous Version | Text Only | Print | Product List | Glossary On
Versions: 1 2 3 4 5 6 7 8 9 10 11 12 13 14 15 16 17
000
FTUS44 KEWX 010541
TAFAUS
TAF
KAUS 010541Z 0106/0212 18005KT P6SM FEW200
     FM010900 17005KT P6SM BKN018
     FM011500 17006KT P6SM BKN025
     FM011600 16008KT P6SM BKN050
     FM012100 14012G22KT P6SM BKN060
     FM020100 14008KT P6SM SCT060=

USA.gov is the U.S. government's official web portal to all federal, state and local government web resources and services.